Regional Weather Roundup
Issued by NWS

Home | Current Version | Previous Version | Text Only | Print | Product List | Glossary Off
Versions: 1 2 3 4 5 6 7 8 9 10 11 12 13 14 15 16 17 18 19 20 21 22 23 24 25 26 27 28 29 30 31 32 33 34 35 36 37 38 39 40 41 42 43 44 45 46 47 48 49 50

000
ASUS45 KBOU 290907
RWRCO

WEATHER ROUNDUP FOR COLORADO
NATIONAL WEATHER SERVICE DENVER/BOULDER CO
300 AM MDT TUE JUL 29 2014

NOTE: "FAIR" INDICATES FEW OR NO CLOUDS BELOW 12000 FEET WITH NO
SIGNIFICANT WEATHER AND/OR OBSTRUCTIONS TO VISIBILITY.

COZ001>005-013-030-031-291000-
...NORTHWEST COLORADO...

CITY           SKY/WX    TMP DP  RH WIND       PRES   REMARKS
CRAIG          CLOUDY    57  53  86 CALM      30.33S
HAYDEN         CLOUDY    63  46  55 W3        30.35S
MEEKER         CLOUDY    61  53  75 SW7       30.36S
MOUNT WERNER   NOT AVBL
STEAMBOAT SPGS CLOUDY    61  49  65 CALM      30.36S
WALDEN         MOCLDY    52  43  71 CALM      30.44F
$$

COZ006>008-011-291000-
...WEST CENTRAL VALLEYS...

CITY           SKY/WX    TMP DP  RH WIND       PRES   REMARKS
GRAND JUNCTION HVY RAIN  62  62 100 SE7       30.31S FOG
MONTROSE       CLOUDY    62  59  90 W6        30.37S
EAGLE          CLOUDY    57  54  88 E5        30.39F
RIFLE          CLOUDY    62  59  90 W12       30.31S
DELTA          CLOUDY    64  61  88 W3        30.33S
NUCLA          RAIN      61  59  94 CALM      30.41S
$$

COZ017>023-064>068-291000-
...SOUTHWEST COLORADO...

CITY           SKY/WX    TMP DP  RH WIND       PRES   REMARKS
DURANGO        CLOUDY    59  54  83 NW5       30.39F
CORTEZ         LGT RAIN  61  61 100 N3        30.35F
PAGOSA SPRINGS CLOUDY    60  51  73 CALM      30.44F
TELLURIDE      DRIZZLE   52  52 100 CALM      30.55S
WOLF CREEK PAS NOT AVBL
$$

COZ009-010-012-014-032>034-037-058>063-291000-
...CENTRAL COLORADO...

CITY           SKY/WX    TMP DP  RH WIND       PRES   REMARKS
ASPEN          CLOUDY    55  52  89 CALM      30.44F
BUENA VISTA    CLOUDY    54  52  94 CALM      30.46F
COPPER MTN     CLOUDY    52  39  62 S14       30.71F
BERTHOUD PASS  CLOUDY    43  30  61 E14       30.76S
COTTONWOOD PAS CLOUDY    54  45  71 CALM      30.57F
GUNNISON       CLOUDY    55  52  88 N3        30.49F
KREMMLING      CLOUDY    55  46  71 E7        30.43R
LEADVILLE      CLOUDY    47  46  97 N3        30.56F
MONARCH PASS   FOG       43  41  93 W20       30.80F VSB 1/4
SALIDA         CLOUDY    57  53  86 W3        30.50F
SUNLIGHT       CLOUDY    50  48  93 CALM      30.64F
WILKERSON PASS MOCLDY    45  41  87 SW3       30.68F
$$

COZ069>075-291000-
...SAN LUIS VALLEY/SANGRE DE CRISTO MOUNTAINS...

CITY           SKY/WX    TMP DP  RH WIND       PRES   REMARKS
ALAMOSA        MOCLDY    55  53  93 NW3       30.44F
LA VETA PASS   MOCLDY    46  46 100 SW10G18   30.57F
SAGUACHE       MOCLDY    54  54 100 NW3       30.47F
$$

COZ035-036-038>040-291000-
...NORTHERN COLORADO FRONT RANGE...

CITY           SKY/WX    TMP DP  RH WIND       PRES   REMARKS
DENVER INTL AP PTCLDY    63  54  72 SW8       30.25F
DMNS CITY PARK   N/A     64  58  80 SW2       30.25F
AURORA         PTCLDY    61  55  82 SW7       30.28F
FRONT RANGE AP NOT AVBL
ERIE MUNI ARPT PTCLDY    62  58  87 CALM      30.25R
BOULDER MUN AP   N/A     68  54  60 MISG        N/A
CENTENNIAL     MOCLDY    62  53  72 W7        30.29F
BROOMFIELD     PTCLDY    64  55  72 CALM      30.28S
FORT COLLINS   PTCLDY    63  54  72 N5        30.26S
LONGMONT       PTCLDY    67  58  72 N7        30.26S
$$

COZ041-046-047-076>085-087-088-291000-
...PIKES PEAK/PALMER DIVIDE AND SOUTHERN FOOTHILLS...

CITY           SKY/WX    TMP DP  RH WIND       PRES   REMARKS
COLO. SPRINGS  MOCLDY    60  57  89 NE5       30.33F
A. F. ACADEMY  MOCLDY    55  54  97 N5        30.34F
ELLICOTT       MOCLDY    61  59  93 SE3       30.31F
FALCON         MOCLDY    59  57  94 N5        30.37F
FORT CARSON    MOCLDY    60  55  84 N6        30.30F
LIMON          PTCLDY    57  56  96 SE5       30.28F
MONUMENT HILL  MOCLDY    55  46  71 W7        30.36F
TRINIDAD       PTCLDY    62  56  80 W7        30.29F
$$

COZ042>045-048>051-090-091-291000-
...NORTHEAST COLORADO...

CITY           SKY/WX    TMP DP  RH WIND       PRES   REMARKS
GREELEY ARPT   PTCLDY    63  54  72 CALM      30.24S
AKRON          CLEAR     64  57  78 S9        30.24F
BURLINGTON     PTCLDY    61  57  87 S7        30.24F
WRAY             N/A     68  58  70 SW7       30.21S
STERLING       CLEAR     66  61  82 SW5       30.19F
HOLYOKE        PTCLDY    61  57  88 E6        30.21S
FORT MORGAN    CLEAR     64  56  74 SE6       30.23F
$$

COZ086-089-092>099-291000-
...SOUTHEAST COLORADO...

CITY           SKY/WX    TMP DP  RH WIND       PRES   REMARKS
PUEBLO         MOCLDY    66  62  87 E3        30.22F
LA JUNTA       MOCLDY    68  62  81 CALM      30.20F
LAMAR          MOCLDY    68  64  87 S7        30.18F
SPRINGFIELD      N/A     63  62  97 S7        30.24F
$$



USA.gov is the U.S. government's official web portal to all federal, state and local government web resources and services.